STARLINK-36951

Last updated on Mon Mar 30 2026 00:02:05 GMT+0000 (Coordinated Universal Time)

1 67990U 26039E 26088.16668981 -.01860401 00000+0 -63079-1 0 9997 2 67990 43.0000 299.1585 0001226 282.0155 295.5077 15.33338162 6009
UTC large
Height (km)
Speed (km/s)
/
Latitude / Longitude
Inclination (degrees)
Orbital Period (minutes)
Azimuth
Elevation
Range (km)
Doppler Factor

Next 0 passes for location: London (51.5072 / 0.1276)

Sorry there are no passes over London.